Regional Weather Roundup
Issued by NWS

Home | Current Version | Previous Version | Text Only | Print | Product List | Glossary On
Versions: 1 2 3 4 5 6 7 8 9 10 11 12 13 14 15 16 17 18 19 20 21 22 23 24 25 26 27 28 29 30 31 32 33 34 35 36 37 38 39 40 41 42 43 44 45 46 47 48 49 50
000
ASUS45 KREV 261110
RWRNV
NEVADA REGIONAL WEATHER ROUNDUP
NATIONAL WEATHER SERVICE RENO NV
300 AM PST MON JAN 26 2015

NOTE: "FAIR" INDICATES FEW OR NO CLOUDS BELOW 12,000 FEET WITH NO
SIGNIFICANT WEATHER AND/OR OBSTRUCTIONS TO VISIBILITY.

NVZ001-003-004-261200-
WESTERN NEVADA

CITY           SKY/WX    TMP DP  RH WIND       PRES   REMARKS
RENO           PTCLDY    32  25  75 CALM      30.27F
CARSON CITY    FAIR      27  21  80 CALM      30.30F
PYRAMID LAKE     N/A     50 N/A N/A S8          N/A
FALLON         MOCLDY    29  18  63 S6        30.27F
LOVELOCK       PTCLDY    23  14  68 NE6       30.28F
HAWTHORNE      CLEAR     34  25  69 CALM      30.31F
$$

NVZ002-CAZ072-073-261200-
NORTHERN AND CENTRAL SIERRA

CITY           SKY/WX    TMP DP  RH WIND       PRES   REMARKS
S. LAKE TAHOE  PTCLDY    29  21  72 S3        30.28F
TRUCKEE        PTCLDY    23  23 100 CALM      30.29S
SQUAW VLY 8000   N/A     39  19  45 CALM        N/A
BLUE CANYON    CLEAR     57  19  22 CALM      30.20S
MAMMOTH LAKES  FAIR      32  19  59 N5        30.33F
BRIDGEPORT     FAIR      22  14  71 CALM      30.31F
$$

NVZ030-031-036-261200-
NORTHERN NEVADA

CITY           SKY/WX    TMP DP  RH WIND       PRES   REMARKS
ELKO           CLEAR     28  26  92 NE6       30.36F
WINNEMUCCA     PTCLDY    40  32  73 NE13      30.27F
WENDOVER       CLEAR     28  25  86 NE7       30.40F
$$

NVZ035-037-261200-
CENTRAL NEVADA

CITY           SKY/WX    TMP DP  RH WIND       PRES   REMARKS
ELY            CLEAR     23  20  88 S10       30.40F
EUREKA           N/A     26  22  84 SW3       30.36F
$$

NVZ013-014-261200-
SOUTH CENTRAL NEVADA

CITY           SKY/WX    TMP DP  RH WIND       PRES   REMARKS
TONOPAH        PTCLDY    40  21  46 N12       30.29
$$

NVZ017-020-022-261200-
SOUTHERN NEVADA

CITY           SKY/WX    TMP DP  RH WIND       PRES   REMARKS
LAS VEGAS      PTCLDY    51  32  48 SW8       30.14S
N. LAS VEGAS   CLEAR     49  30  48 NW6       30.16F
NELLIS AFB     CLEAR     49  31  49 W2        30.17S
HENDERSON      CLEAR     48  33  56 SE7       30.19S
MERCURY        CLEAR     51  26  37 NE10      30.19S
$$



USA.gov is the U.S. government's official web portal to all federal, state and local government web resources and services.